Home > Weather > Korneuburg > Past weeks

Flag for Austria Weather for the Past 2 Weeks in Korneuburg, Lower Austria, Austria

Now
48 °F

Passing clouds.


Feels Like: 46 °F
Forecast: 39 / 45 °F
Wind: 6 mph from Southwest

Location: Tulln Airport

Current Time: Feb 15, 2016 at 12:31:59 AM

Latest Report: Feb 14, 2016 at 9:50 PM


Visibility: 6 mi

Pressure: 29.33 "Hg

Humidity: 82%

Dew point: 43 °F

Location of KorneuburgLocation

Historic Weather in Korneuburg — Graph

°F

Korneuburg Temperature Yesterday

Maximum temperature yesterday: 48 °F (at 8:50 PM)
Minimum temperature yesterday: 34 °F (at 4:50 AM)
Average temperature yesterday: 42 °F

High & Low Weather Summary for the Past Weeks

 TemperatureHumidityPressure
High57 °F (Feb 9, 3:50 PM)100% (Jan 30, 9:50 PM)30.36 "Hg (Jan 30, 9:50 PM)
Low27 °F (Feb 12, 4:50 AM)48% (Feb 9, 3:50 PM)29.27 "Hg (Feb 14, 2:50 PM)
Average43 °F76%29.82 "Hg
* Reported Jan 30 9:50 PM — Feb 14 9:50 PM, Korneuburg, Weather by CustomWeather, © 2016

Note: Actual official high and low records may vary slightly from our data, if they occured in-between our weather recording intervals... More about our weather records

Advertising

Korneuburg Weather History for the Previous 24 Hours

 ConditionsComfort  
Time TempWeatherWind HumidityBarometerVisibility
9:50 PM
Sun, Feb 14
48 °FPassing clouds.6 mph82%29.33 "Hg6 mi
8:50 PM48 °FPassing clouds.24 mph82%29.27 "Hg6 mi
7:50 PM46 °FLight rain. Partly cloudy.16 mph87%29.30 "Hg6 mi
6:50 PM46 °FLight rain. Passing clouds.22 mph87%29.27 "Hg6 mi
5:50 PM46 °FLight rain. Passing clouds.9 mph82%29.27 "Hg9 mi
4:50 PM46 °FPartly sunny.6 mph76%29.27 "Hg19 mi
3:50 PM46 °FBroken clouds.8 mph76%29.27 "Hg12 mi
2:50 PM45 °FPartly sunny.8 mph81%29.27 "Hg9 mi
1:50 PM45 °FBroken clouds.13 mph76%29.30 "Hg9 mi
12:50 PM41 °FBroken clouds.12 mph81%29.30 "Hg9 mi
11:50 AM41 °FPartly sunny.10 mph81%29.33 "Hg9 mi
10:50 AM39 °FBroken clouds.14 mph81%29.33 "Hg6 mi
9:50 AM41 °FPartly sunny.7 mph81%29.33 "Hg6 mi
8:50 AM37 °FBroken clouds.3 mph87%29.33 "Hg4 mi
7:50 AM36 °FFog.3 mph93%29.33 "Hg3 mi
6:50 AM34 °FLow clouds.3 mph100%29.36 "Hg4 mi
5:50 AM34 °FLow clouds.6 mph93%29.33 "Hg4 mi
4:50 AM34 °FFog.2 mph93%29.33 "Hg2 mi
Weather by CustomWeather, © 2016

See weather overviewHow to use our weather pages